Location: Newark
(45.9456°N, 15.4064°E)
Time: 13:37:34
(UTC+00:00)

Courier 1B Rocket - Pass Details

Date: 27 January 2020
Orbit: 920 x 1202 km, 28.2° (Epoch: 24 February)

Event Time Altitude Azimuth Distance (km) Brightness Sun altitude
Rises 12:35:49 0° 244° (WSW) 3,875 8.8 22.7°
Reaches altitude 10° 12:39:52 10° 224° (SW) 2,855 8.9 22.5°
Maximum altitude 12:43:42 16° 190° (S) 2,406 9.1 22.2°
Drops below altitude 10° 12:47:25 10° 155° (SSE) 2,740 8.1 21.9°
Sets 12:51:10 0° 134° (SE) 3,637 8.2 21.7°
